Dati Storici

Data ora Umidita' aria (%) Temperatura aria (°C) Rad globale (W/m²) Gonioanemometro (°) Tacoanemometro (m/s) Pioggia (mm)
28-06-2020 16:10 60.8 % 29.228 131.37 1.469 0 0
28-06-2020 16:00 62.2 % 29.098 140.412 1.569 0 0
28-06-2020 15:50 63.4 % 28.473 133.009 3.191 0 0
28-06-2020 15:40 66.8 % 28.869 106.379 2.809 0 0
28-06-2020 15:30 67.1 % 28.588 159.18 2.557 0 0
28-06-2020 15:20 65.7 % 29.024 138.697 2.284 0 0
28-06-2020 15:10 63.2 % 29.113 54.569 2.634 0 0
28-06-2020 15:00 65.9 % 29.443 148.19 2.561 0 0
28-06-2020 14:50 66.8 % 29.076 109.402 1.256 0 0
28-06-2020 14:40 67.1 % 28.481 75.155 2.433 0 0
28-06-2020 14:30 66.3 % 28.629 120.578 2.687 0 0
28-06-2020 14:20 66 % 29.424 150.621 0.592 0 0
28-06-2020 14:10 65.1 % 29.311 151.079 0.986 0 0
28-06-2020 14:00 65.4 % 29.725 90.711 1.544 0 0
28-06-2020 13:50 65 % 29.948 33.79 -0.052 0 0
28-06-2020 13:40 65.9 % 29.544 120.745 1.706 0 0
28-06-2020 13:30 66.2 % 29.387 111.447 2.246 0 0
28-06-2020 13:20 65.5 % 29.427 207.372 0.211 0 0
28-06-2020 13:10 63 % 29.776 116.715 2.176 0 0
28-06-2020 13:00 60.8 % 29.396 78.446 0.877 0 0

I dati sono presentati in modo automatico a scopo informativo. In seguito a verifica i dati possono subire modifiche o essere invalidati e non riportati negli archivi definitivi.